Regional Weather Roundup
Issued by NWS Wakefield, VA

Home | Current Version | Previous Version | Graphics & Text | Print | Product List | Glossary On
Versions: 1 2 3 4 5 6 7 8 9 10 11 12 13 14 15 16 17 18 19 20 21 22 23 24 25 26 27
000
ASUS41 KAKQ 221715
RWRAKQ

REGIONAL WEATHER ROUNDUP
NATIONAL WEATHER SERVICE WAKEFIELD VA
100 PM EDT MON MAY 22 2017

Note: "fair" indicates few or no clouds below 12,000 feet with no
significant weather and/or obstructions to visibility. * = Denotes
station may not report precipitation (e.g., rain,snow,etc.),
thunder or fog.

VAZ042-051-052>054-056-221800-
NORTHERN VIRGINIA

CITY           SKY/WX    TMP DP  RH WIND       PRES   REMARKS
WASH NATIONAL  CLOUDY    65  62  90 SE6       30.04F
DULLES         CLOUDY    64  61  90 S5        30.03F
FORT BELVOIR   CLOUDY    64  61  88 SE5       30.02F
QUANTICO       NOT AVBL
FREDERICKSBRG* CLOUDY    64  64 100 CALM      30.02F
STAFFORD*      CLOUDY    64  64 100 CALM      30.07F
WARRENTON      CLOUDY    67  60  78 CALM      30.02F
CULPEPER*      CLOUDY    67  63  87 CALM      30.04F
MANASSAS*        N/A     66  62  87 S5        30.03F
LEESBURG*      CLOUDY    66  63  88 S5        30.04F
WINCHESTER     PTSUNNY   70  61  73 CALM      30.00F
FRONT ROYAL*   PTSUNNY   72  64  78 NE6       29.99F
LURAY*         CLOUDY    75  64  69 S5        29.99F
$$

VAZ048-049-060>072-079>083-221800-
CENTRAL AND SOUTH CENTRAL VIRGINIA

CITY           SKY/WX    TMP DP  RH WIND       PRES   REMARKS
RICHMOND       LGT RAIN  65  64  97 N6        30.01F FOG
CHESTERFIELD*  PTSUNNY  N/A N/A N/A N3        30.03F
PETERSBURG*    HVY RAIN  64  63  96 CALM      30.02F VSB 3/4
HANOVER        RAIN      65  62  90 CALM      30.03F FOG
TAPPAHANNOCK*  CLOUDY    67  67 100 CALM      30.04F
QUINTON*       CLOUDY    65  65 100 NW7       30.01F
CHARLOTTSVILLE PTSUNNY   72  64  76 S7        30.01F
GORDONSVILLE*  MOSUNNY   72  63  73 S8        30.01F
ORANGE*        PTSUNNY   70  63  78 S5        30.02F
LOUISA*        CLOUDY    70  64  83 CALM      30.01F
BUMPASS*       PTSUNNY   63  63  98 CALM      30.03F
FARMVILLE*     CLOUDY    68  65  90 CALM      30.02F
CREWE*         CLOUDY    64  60  86 NW6       30.03R
FORT PICKETT*  CLOUDY   N/A N/A N/A NW9       30.02S
CHASE CITY*    CLOUDY    68  66  94 NW3       30.03S
CLARKSVILLE*   CLOUDY    66  66 100 NW5       30.02F
SOUTH HILL*    CLOUDY    66  66 100 N7        30.07S
LAWRENCEVILLE* CLOUDY    67  66  97 NW3       30.00S
EMPORIA*       RAIN      70  68  94 CALM      29.99F
$$

VAZ088>098-221800-
SOUTHEAST VIRGINIA

CITY           SKY/WX    TMP DP  RH WIND       PRES   REMARKS
NORFOLK        CLOUDY    78  69  73 S8        29.99F
VIRGINIA BEACH CLOUDY    76  69  79 S8        29.99F
NORFOLK NAVAL  NOT AVBL
WEST POINT*    PTSUNNY   68  67  96 CALM      30.03F
SALUDA*        CLOUDY    67  67 100 N3        30.01F
NEWPORT NEWS   PTSUNNY   76  68  76 SE5       29.99F
LANGLEY AFB    PTSUNNY   77  69  77 S5        29.98F
FORT EUSTIS    PTSUNNY   75  70  83 E3        29.97F
WILLIAMSBURG*  CLOUDY    72  72 100 CALM      30.01F
HR EXEC AP*    PTSUNNY   77  68  73 S9        29.97F
FRANKLIN*      DRIZZLE   75  68  80 SE8       29.97F
US460-WAKEFLD  LGT RAIN  73  70  90 CALM      29.98F FOG
$$

VAZ020-022-025-037-045-221800-
WEST CENTRAL AND SOUTHWEST VIRGINIA

CITY           SKY/WX    TMP DP  RH WIND       PRES   REMARKS
STAUNTON*      PTSUNNY   73  63  68 SW5       30.03F
WAYNESBORO*    PTSUNNY   71  64  78 SW8       30.03F
HOT SPRINGS VA CLOUDY    50  50 100 CALM      30.12F
LYNCHBURG      PTSUNNY   72  64  76 CALM      30.04F
DANVILLE       CLOUDY    72  66  81 NE3       30.03F
SOUTH BOSTON*  CLOUDY    68  66  96 NW5       30.04F
MARTINSVILLE   MOSUNNY   74  65  74 CALM      30.07F
ROANOKE        CLOUDY    71  64  78 W6        30.07F
BLACKSBURG     PTSUNNY   71  61  71 W6        30.11F
DUBLIN*        CLOUDY    72  56  56 W9        30.10F
MARION*        CLOUDY    66  59  76 CALM      30.16S
HILLSVILLE*    CLOUDY    69  60  74 CALM      30.10F
RICHLANDS*     CLOUDY    63  58  84 NW5       30.14S
WISE*          CLOUDY    63  61  94 CALM      30.17F
ABINGDON*      CLOUDY    71  62  72 NW6       30.12S
$$

MDZ021>025-VAZ099-100-221800-
SOUTHERN MARYLAND AND THE DELMARVA PENINSULA

CITY           SKY/WX    TMP DP  RH WIND       PRES   REMARKS
PATUXENT RIVER LGT RAIN  64  64 100 CALM      30.03F
BAY BRIDGE APT LGT RAIN  63  61  94 S3        30.04S
LEONARDTOWN    CLOUDY    63  61  94 CALM      30.04F
DOVER          LGT RAIN  63  63 100 E3        30.02F
GEORGETOWN     CLOUDY    69  67  93 SW7       30.03F
EASTON         RAIN      63  61  94 CALM      30.07F
CAMBRIDGE      PTSUNNY   63  63 100 CALM      30.03F
SALISBURY      CLOUDY    71  69  93 S8        30.02F FOG
OCEAN CITY     CLOUDY    65  62  90 VRB5      30.04F
WALLOPS ISLAND HVY RAIN  67  66  97 S12       30.03F VSB 1
ACCOMACK*      RAIN      69  28  22 S9        30.02F
$$

NCZ012>017-030>032-221800-
NORTH CENTRAL AND EASTERN NORTH CAROLINA

CITY           SKY/WX    TMP DP  RH WIND       PRES   REMARKS
ROANOKE RAPIDS CLOUDY    72  70  94 W10G21    29.99S
RALEIGH        PTSUNNY   73  66  78 NW6       30.03F
ELIZABETH CITY CLOUDY    80  69  69 S8        30.00F
AHOSKIE*       LGT RAIN  75  71  86 S6        29.97F
EDENTON*       CLOUDY    81  70  67 S12       30.00F
CURRITUCK*     CLOUDY    78  68  70 CALM      30.01F
KILL DEVIL HLS NOT AVBL
MANTEO         CLOUDY    77  71  80 S16G22    30.03F
CAPE HATTERAS  PTSUNNY   82  71  69 S10       30.06F
TARBORO*       NOT AVBL
GOLDSBORO      PTSUNNY   86  68  56 W20G28    29.98F
WASHINGTON     CLOUDY    81  69  66 S10G18    30.00F
GREENVILLE     PTSUNNY   82  68  61 SW12G23   30.00F
NEW BERN       CLOUDY    81  69  67 SW12G23   30.02F
WILMINGTON     PTSUNNY   84  70  62 S13       30.03F
$$

VAZ048-221800-
ELSEWHERE

CITY           SKY/WX    TMP DP  RH WIND       PRES   REMARKS
HARRISBURG PA  CLOUDY    61  58  90 SE6       30.02F
BALTIMORE      CLOUDY    63  61  93 SW3       30.03F
ANNAPOLIS      CLOUDY    64  63  96 CALM      30.04S
ANDREWS AFB    CLOUDY    63  61  94 CALM      30.02F
PHILADELPHIA   RAIN      61  58  90 CALM      30.05S FOG
HENDERSON NC   CLOUDY    64  62  94 W6        30.04R
GREENSBORO     PTSUNNY   76  67  73 S6        30.04F
ROCKY MOUNT    PTSUNNY   77  67  71 W15G25    30.00R
$$

VAZ100-221800-
MARINE

STATION/POSITION TIME  TEMP    WIND        PRES    WAVE   SWELL
                       AIR SEA DIR/SP/G            HT/PER HT/PER
                 (UTC) (F)     (DEG/KT/KT) (MB)    (FT/S) (FT/S)
CAPE MAY NJ      1648   63 61  160/  9/ 12 1016.3F
LEWES DE         1648   68 61  190/  5/  8 1016.5F
15NM E FENWICK I 1550   61 57  150/ 12/ 16 1017.9    4/ 6   2/ 7
OCEAN-CITY-INLET 1648   64 62  240/  5/  6 1017.4F
WACHAPREAGUE VA  1648   69 68  200/  6/ 10 1016.3F
THOMAS POINT MD  1700   61 66  250/  2/  2   N/A
GOOSES REEF MD   1650   63     120/  2/  4 1017.5F
COVE POINT MD    1648   62      CALM  /  1 1017.5F
SOLOMONS ISLAND  1648   63 67     CALM       N/A
BISHOPS HEAD MD  1648   66 68     CALM     1017.0F
PINEY POINT MD   1642          190/  2/  2   N/A
POTOMAC MD       1650   64      20/  2/  4 1015.9F
CAMBRIDGE MD     1648   63 69                N/A
LEWISETTA VA     1648   65 69   40/  2/  3 1016.4F
RAPPAHANNOCK LGT 1642          170/  5/  6 1017.1F
STINGRAY PT      1650   67      40/  4/  6 1016.3F
YORK RVR RNG VA  1648   69      90/  6/  6 1015.2F
YORKTOWN VA      1648   70 69   80/  4/  5 1015.5F
JAMESTOWN VA     1650   70      40/  4/  6   N/A
DOMINION TERM VA 1648   74     130/  3/  4 1015.5F
KIPTOPEKE VA     1642      66  140/  7/  9   N/A
CHES BAY BRIDGE  1648   72 68  160/  8/  9 1015.6F
CAPE HENRY VA    1648   68     140/  9/ 12   N/A
WILLOUBY STN VA  1648   76     160/  5/  6 1015.4F
S CRANEY ISL VA  1648   75     210/  4/  6 1015.3F
CAPE HENRY BUOY  1642      62                N/A     4/ 7
1ST LANDING BUOY 1650   69                 1015.9F
CAPE CHARLES BUO 1651      65                N/A     3/ 6
64NM E OF VA BCH 1650   71 69  160/ 10/ 12 1017.8F   4/ 9   3/ 9
DUCK PIER NC     1648   70 67  140/ 13/ 15 1015.9F
44100 DUCK FRF   1635      64                N/A     4/ 7
44056 DUCK FRF   1630      67                N/A     4/ 6
OREGON INLET NC  1642   76 70  160/ 12/ 14 1017.1F
HATTERAS NC      1648   77 74  160/  9/ 12 1017.6F
DIAMOND SHLS NC  1650   76 78  170/  8/ 10 1018.1F   4/ 8   3/ 8
CAPE LOOKOUT NC  1600   78     210/ 13/ 16 1017.9F
$$




USA.gov is the U.S. government's official web portal to all federal, state and local government web resources and services.